This is the latest recevied weather packets stored in our database for station/object KE0LFX. If no packets are shown the sender has not sent any weather packets the latest 10 day(s).
| Time | Temp. | Humidity | Pressure | Rain* | Wind** | Luminosity | Snow |
|---|---|---|---|---|---|---|---|
| 1777595599 | 11.11° C | 48% | 1018.7 hPa | 0 mm | - | 16 W/m² | - |
| 1777595295 | 11.11° C | 47% | 1019 hPa | 0 mm | - | 19 W/m² | - |
| 1777594991 | 11.67° C | 47% | 1018.6 hPa | 0 mm | - | 21 W/m² | - |
| 1777594688 | 11.67° C | 47% | 1018.5 hPa | 0 mm | - | 25 W/m² | - |
| 1777594384 | 11.67° C | 45% | 1018.8 hPa | 0 mm | - | 28 W/m² | - |
| 1777594080 | 11.67° C | 45% | 1018.5 hPa | 0 mm | - | 38 W/m² | - |
| 1777593776 | 11.67° C | 44% | 1018.7 hPa | 0 mm | - | 35 W/m² | - |
| 1777593472 | 12.22° C | 44% | 1018.6 hPa | 0 mm | - | 39 W/m² | - |
| 1777593171 | 12.22° C | 44% | 1018.6 hPa | 0 mm | - | 44 W/m² | - |
| 1777592870 | 12.78° C | 44% | 1018.6 hPa | 0 mm | - | 92 W/m² | - |
| 1777592567 | 12.78° C | 45% | 1018.5 hPa | 0 mm | - | 90 W/m² | - |
| 1777592262 | 13.33° C | 48% | 1018.6 hPa | 0 mm | - | 121 W/m² | - |
| 1777591959 | 12.78° C | 48% | 1018.2 hPa | 0 mm | - | 130 W/m² | - |
| 1777591654 | 12.78° C | 51% | 1018.5 hPa | 0 mm | - | 150 W/m² | - |
| 1777591351 | 12.78° C | 52% | 1018.6 hPa | 0 mm | - | 103 W/m² | - |
| 1777591047 | 12.22° C | 52% | 1018.6 hPa | 0 mm | - | 160 W/m² | - |
| 1777590742 | 12.22° C | 52% | 1018.7 hPa | 0 mm | - | 97 W/m² | - |
| 1777590439 | 12.22° C | 52% | 1018.6 hPa | 0 mm | - | 102 W/m² | - |
| 1777590136 | 12.22° C | 52% | 1018.4 hPa | 0 mm | - | 116 W/m² | - |
| 1777589833 | 12.22° C | 52% | 1018.6 hPa | 0 mm | - | 94 W/m² | - |
| 1777589527 | 12.78° C | 52% | 1018.9 hPa | 0 mm | - | 145 W/m² | - |
| 1777589227 | 12.22° C | 52% | 1018.6 hPa | 0 mm | - | 200 W/m² | - |
| 1777588923 | 12.22° C | 52% | 1018.6 hPa | 0 mm | - | 124 W/m² | - |
| 1777588619 | 12.78° C | 50% | 1018.6 hPa | 0 mm | - | 122 W/m² | - |
| 1777588315 | 12.78° C | 51% | 1018.6 hPa | 0 mm | - | 336 W/m² | - |
* Rain latest hour (hover to see other rain measurements)
** Current wind speed in m/s (hover to see current wind gust speed)